TimePDT,TemperatureF,Dew PointF,Humidity,Sea Level PressureIn,VisibilityMPH,Wind Direction,Wind SpeedMPH,Gust SpeedMPH,PrecipitationIn,Events,Conditions,WindDirDegrees,DateUTC
12:53 AM,59.0,27.0,29,29.68,-9999.0,West,8.1,-,N/A,,Unknown,270,2014-04-18 07:53:00
1:53 AM,57.9,30.0,35,29.67,-9999.0,Calm,Calm,-,N/A,,Unknown,0,2014-04-18 08:53:00
2:53 AM,51.1,28.9,43,29.70,-9999.0,Variable,5.8,-,N/A,,Unknown,0,2014-04-18 09:53:00
3:53 AM,51.1,30.0,44,29.71,-9999.0,Calm,Calm,-,N/A,,Unknown,0,2014-04-18 10:53:00
4:53 AM,48.0,30.9,52,29.70,-9999.0,SSW,5.8,-,N/A,,Unknown,210,2014-04-18 11:53:00
5:53 AM,48.0,30.9,52,29.72,-9999.0,Calm,Calm,-,N/A,,Unknown,0,2014-04-18 12:53:00
6:53 AM,46.0,32.0,58,29.77,-9999.0,ENE,3.5,-,N/A,,Unknown,70,2014-04-18 13:53:00
7:53 AM,52.0,33.1,49,29.79,-9999.0,Calm,Calm,-,N/A,,Unknown,0,2014-04-18 14:53:00
8:53 AM,57.0,39.0,51,29.79,-9999.0,North,6.9,-,N/A,,Unknown,360,2014-04-18 15:53:00
9:53 AM,60.1,39.0,46,29.79,-9999.0,North,13.8,21.9,N/A,,Unknown,350,2014-04-18 16:53:00
10:53 AM,61.0,37.0,41,29.81,-9999.0,NNE,10.4,-,N/A,,Unknown,20,2014-04-18 17:53:00
11:53 AM,64.0,36.0,35,29.78,-9999.0,NNE,11.5,-,N/A,,Unknown,20,2014-04-18 18:53:00
12:53 PM,64.9,36.0,34,29.78,-9999.0,NNE,6.9,-,N/A,,Unknown,20,2014-04-18 19:53:00
1:53 PM,66.0,35.1,32,29.76,-9999.0,NNW,9.2,-,N/A,,Unknown,340,2014-04-18 20:53:00
2:53 PM,64.0,33.1,31,29.78,-9999.0,East,4.6,-,N/A,,Unknown,90,2014-04-18 21:53:00
3:53 PM,61.0,36.0,39,29.79,-9999.0,SSE,18.4,-,N/A,,Unknown,150,2014-04-18 22:53:00
4:53 PM,62.1,34.0,35,29.78,-9999.0,SSE,10.4,-,N/A,,Unknown,150,2014-04-18 23:53:00
5:53 PM,60.1,35.1,39,29.80,-9999.0,NNW,8.1,-,N/A,,Unknown,340,2014-04-19 00:53:00
6:53 PM,59.0,35.1,41,29.81,-9999.0,Variable,6.9,-,N/A,,Unknown,0,2014-04-19 01:53:00
7:53 PM,55.0,35.1,47,29.81,-9999.0,South,6.9,-,N/A,,Unknown,190,2014-04-19 02:53:00
8:53 PM,50.0,35.1,57,29.83,-9999.0,South,6.9,-,N/A,,Unknown,170,2014-04-19 03:53:00
9:53 PM,48.9,35.1,59,29.83,-9999.0,SE,5.8,-,N/A,,Unknown,140,2014-04-19 04:53:00
10:53 PM,46.0,34.0,63,29.85,-9999.0,Calm,Calm,-,N/A,,Unknown,0,2014-04-19 05:53:00
11:53 PM,45.0,35.1,68,29.85,-9999.0,South,8.1,-,N/A,,Unknown,170,2014-04-19 06:53:00